This is the latest recevied weather packets stored in our database for station/object DG3RAP-11. If no packets are shown the sender has not sent any weather packets the latest 10 day(s).
| Time | Temp. | Humidity | Pressure | Rain* | Wind** | Luminosity | Snow |
|---|---|---|---|---|---|---|---|
| 1777901223 | 25.56° C | 31% | 1011.8 hPa | 0 mm | - | - | - |
| 1777900683 | 25° C | 33% | 1012.1 hPa | 0 mm | - | - | - |
| 1777900143 | 25.56° C | 33% | 1012.2 hPa | 0 mm | - | - | - |
| 1777899603 | 25° C | 33% | 1012.3 hPa | 0 mm | - | - | - |
| 1777899243 | 23.89° C | 34% | 1012.4 hPa | 0 mm | - | - | - |
| 1777898703 | 23.33° C | 34% | 1012.6 hPa | 0 mm | - | - | - |
| 1777898163 | 24.44° C | 34% | 1012.4 hPa | 0 mm | - | - | - |
| 1777897623 | 24.44° C | 34% | 1012.8 hPa | 0 mm | - | - | - |
| 1777897083 | 23.89° C | 36% | 1012.6 hPa | 0 mm | - | - | - |
| 1777896543 | 24.44° C | 34% | 1012.8 hPa | 0 mm | - | - | - |
| 1777896003 | 24.44° C | 33% | 1012.9 hPa | 0 mm | - | - | - |
| 1777895643 | 24.44° C | 36% | 1012.9 hPa | 0 mm | - | - | - |
| 1777895104 | 23.33° C | 35% | 1013 hPa | 0 mm | - | - | - |
| 1777894563 | 23.33° C | 35% | 1013.3 hPa | 0 mm | - | - | - |
| 1777894023 | 22.78° C | 35% | 1013.2 hPa | 0 mm | - | - | - |
| 1777893483 | 22.78° C | 35% | 1013.2 hPa | 0 mm | - | - | - |
| 1777892943 | 23.33° C | 37% | 1013.4 hPa | 0 mm | - | - | - |
| 1777892403 | 22.78° C | 35% | 1013.6 hPa | 0 mm | - | - | - |
| 1777892043 | 23.33° C | 34% | 1013.6 hPa | 0 mm | - | - | - |
| 1777891503 | 22.78° C | 37% | 1013.8 hPa | 0 mm | - | - | - |
| 1777890963 | 22.22° C | 36% | 1013.9 hPa | 0 mm | - | - | - |
| 1777890424 | 22.78° C | 35% | 1014 hPa | 0 mm | - | - | - |
| 1777889883 | 21.11° C | 38% | 1014 hPa | 0 mm | - | - | - |
| 1777889343 | 22.22° C | 36% | 1014.1 hPa | 0 mm | - | - | - |
| 1777888803 | 22.22° C | 37% | 1014.1 hPa | 0 mm | - | - | - |
* Rain latest hour (hover to see other rain measurements)
** Current wind speed in m/s (hover to see current wind gust speed)